KD5OH Weather Reports


time (UTC)temp
C
wind
direction
speed
KPH
gust
KPH
rain 1hr
cm
rain 24hr
cm
rain mn
cm
humidity
%
barometer
mb
20260903053150 26 131 3.2 9.7 0.00 0.00 0.00 35 1017.6
20260903051624 26 155 0.0 1.6 0.00 0.00 0.00 35 1017.3
20260903050138 26 180 0.0 0.0 0.00 0.00 0.00 35 1017.5
20260903044633 26 181 0.0 1.6 0.00 0.00 0.00 34 1017.4
20260903043126 27 210 0.0 0.0 0.00 0.00 0.00 34 1017.4
20260903041621 27 208 1.6 1.6 0.00 0.00 0.00 35 1017.4
20260903040135 28 113 0.0 0.0 0.00 0.00 0.00 31 1017.3
20260903034627 28 113 0.0 1.6 0.00 0.00 0.00 31 1017.3
20260903033122 28 111 0.0 1.6 0.00 0.00 0.00 30 1017.1
20260903031635 28 111 0.0 1.6 0.00 0.00 0.00 30 1016.8
20260903030132 28 118 0.0 1.6 0.00 0.00 0.00 30 1016.8
20260903024624 28 118 0.0 0.0 0.00 0.00 0.00 30 1016.7
20260903023139 28 117 0.0 1.6 0.00 0.00 0.00 32 1016.5
20260903021631 28 233 0.0 0.0 0.00 0.00 0.00 30 1016.4
20260903020143 29 233 0.0 0.0 0.00 0.00 0.00 29 1016.4
20260903014657 30 233 0.0 0.0 0.00 0.00 0.00 27 1016.2
20260903013129 31 233 0.0 0.0 0.00 0.00 0.00 25 1016.1
20260903011644 32 233 0.0 0.0 0.00 0.00 0.00 23 1016.1
20260903010137 33 233 0.0 8.0 0.00 0.00 0.00 22 1016.0
20260903004627 33 164 0.0 1.6 0.00 0.00 0.00 21 1016.0
20260903003123 35 232 1.6 6.4 0.00 0.00 0.00 20 1016.1
20260903001654 34 258 4.8 9.7 0.00 0.00 0.00 22 1016.0
20260903000130 34 246 6.4 11.3 0.00 0.00 0.00 21 1016.2
20260902234622 34 153 4.8 11.3 0.00 0.00 0.00 20 1016.2
20260902233138 34 169 8.0 14.5 0.00 0.00 0.00 20 1016.2
20260902231630 33 232 9.7 19.3 0.00 0.00 0.00 22 1016.4
20260902230142 33 186 3.2 6.4 0.00 0.00 0.00 22 1016.4
20260902224637 33 263 4.8 9.7 0.00 0.00 0.00 22 1016.5
20260902223128 33 244 4.8 14.5 0.00 0.00 0.00 22 1016.7
20260902221623 35 243 4.8 14.5 0.00 0.00 0.00 19 1016.8
20260902220135 35 234 6.4 17.7 0.00 0.00 0.00 19 1016.9
20260902214647 35 296 4.8 16.1 0.00 0.00 0.00 20 1016.8
20260902213121 35 274 6.4 17.7 0.00 0.00 0.00 20 1017.1
20260902211632 35 277 1.6 8.0 0.00 0.00 0.00 21 1017.2
20260902210128 35 325 6.4 19.3 0.00 0.00 0.00 20 1017.4
20260902204701 35 137 4.8 9.7 0.00 0.00 0.00 20 1017.8
20260902203153 34 286 3.2 9.7 0.00 0.00 0.00 21 1018.1
20260902201626 35 253 9.7 17.7 0.00 0.00 0.00 21 1018.2
20260902200138 35 196 6.4 12.9 0.00 0.00 0.00 22 1018.5
20260902194654 34 279 1.6 8.0 0.00 0.00 0.00 22 1018.7
20260902193125 34 235 1.6 16.1 0.00 0.00 0.00 21 1019.0
20260902191636 34 161 8.0 14.5 0.00 0.00 0.00 22 1019.2
20260902190152 33 229 4.8 16.1 0.00 0.00 0.00 22 1019.6
20260902184640 33 214 6.4 16.1 0.00 0.00 0.00 23 1019.8
20260902183136 33 238 9.7 14.5 0.00 0.00 0.00 24 1020.0
20260902181628 33 251 6.4 17.7 0.00 0.00 0.00 23 1020.4
20260902180124 33 270 11.3 19.3 0.00 0.00 0.00 25 1020.4
20260902174655 33 111 6.4 12.9 0.00 0.00 0.00 25 1020.6
20260902173125 32 217 8.0 14.5 0.00 0.00 0.00 26 1020.9
20260902171640 32 187 4.8 16.1 0.00 0.00 0.00 26 1021.0
20260902170151 32 256 6.4 12.9 0.00 0.00 0.00 25 1021.1
20260902164626 31 184 4.8 14.5 0.00 0.00 0.00 26 1021.0
20260902163138 31 147 6.4 12.9 0.00 0.00 0.00 27 1021.1
20260902161650 31 208 8.0 12.9 0.00 0.00 0.00 28 1021.0
20260902160146 30 142 4.8 12.9 0.00 0.00 0.00 29 1021.0
20260902154636 30 172 3.2 12.9 0.00 0.00 0.00 31 1021.0
20260902153131 29 158 6.4 12.9 0.00 0.00 0.00 31 1020.7
20260902151622 28 149 6.4 14.5 0.00 0.00 0.00 32 1020.8
20260902150134 28 143 0.0 0.0 0.00 0.00 0.00 34 1020.7
20260902144650 28 130 4.8 12.9 0.00 0.00 0.00 35 1020.7
20260902143122 27 201 3.2 6.4 0.00 0.00 0.00 39 1020.6
20260902141657 25 142 3.2 8.0 0.00 0.00 0.00 41 1020.4
20260902140128 24 129 0.0 1.6 0.00 0.00 0.00 46 1020.3
20260902134629 23 138 0.0 1.6 0.00 0.00 0.00 47 1020.2
20260902133124 22 120 0.0 1.6 0.00 0.00 0.00 48 1020.0
20260902131636 21 142 0.0 0.0 0.00 0.00 0.00 50 1019.9
20260902130132 20 131 0.0 1.6 0.00 0.00 0.00 50 1019.7
20260902124623 19 118 0.0 0.0 0.00 0.00 0.00 53 1019.7
20260902123139 19 103 0.0 0.0 0.00 0.00 0.00 55 1019.7
20260902121631 19 130 0.0 0.0 0.00 0.00 0.00 55 1019.5
20260902120123 20 109 0.0 0.0 0.00 0.00 0.00 54 1019.4
20260902114638 20 158 0.0 0.0 0.00 0.00 0.00 52 1019.3
20260902113131 20 91 0.0 1.6 0.00 0.00 0.00 52 1019.3
20260902111626 21 172 0.0 3.2 0.00 0.00 0.00 49 1019.1
20260902110139 22 147 3.2 4.8 0.00 0.00 0.00 47 1019.1
20260902104635 22 151 1.6 6.4 0.00 0.00 0.00 46 1019.1
20260902103127 22 137 3.2 6.4 0.00 0.00 0.00 46 1019.0
20260902101623 21 121 3.2 8.0 0.00 0.00 0.00 48 1019.1
20260902100136 20 123 0.0 1.6 0.00 0.00 0.00 53 1019.1
20260902094627 20 99 0.0 1.6 0.00 0.00 0.00 55 1019.1
20260902093123 20 94 0.0 1.6 0.00 0.00 0.00 54 1019.1
20260902091634 20 80 0.0 3.2 0.00 0.00 0.00 54 1019.2
20260902090151 20 161 0.0 0.0 0.00 0.00 0.00 54 1019.3
20260902084621 20 272 0.0 0.0 0.00 0.00 0.00 54 1019.1
20260902083154 20 272 0.0 1.6 0.00 0.00 0.00 55 1019.2
20260902081628 20 274 0.0 1.6 0.00 0.00 0.00 53 1019.2
20260902080201 21 157 0.0 0.0 0.00 0.00 0.00 50 1019.3
20260902074635 21 237 0.0 1.6 0.00 0.00 0.00 49 1019.2
20260902073127 22 232 0.0 0.0 0.00 0.00 0.00 48 1019.2
20260902071639 22 232 0.0 0.0 0.00 0.00 0.00 48 1019.4
20260902070136 22 257 0.0 0.0 0.00 0.00 0.00 48 1019.3
20260902064627 23 249 0.0 1.6 0.00 0.00 0.00 45 1019.2
20260902063122 23 123 0.0 1.6 0.00 0.00 0.00 43 1019.2
20260902061634 23 131 0.0 1.6 0.00 0.00 0.00 43 1019.2
20260902060148 25 144 0.0 1.6 0.00 0.00 0.00 41 1019.2
20260902054622 25 147 0.0 4.8 0.00 0.00 0.00 41 1019.1